DW0494 Weather Reports


Display with metric or nautical units.
time (UTC)temp
F
wind
direction
speed
MPH
gust
MPH
rain 1hr
in
rain 24hr
in
rain mn
in
humidity
%
barometer
mb
20260510060404 66 252 0.0 3.0 0.00 0.00 0.00 79 1019.2
20260510054903 65 235 1.0 3.0 0.00 0.00 0.00 79 1019.3
20260510054405 66 238 2.0 3.0 0.00 0.00 0.00 78 1019.3
20260510053903 66 234 0.0 3.0 0.00 0.00 0.00 79 1019.1
20260510052903 66 239 0.0 2.0 0.00 0.00 0.00 78 1019.1
20260510052404 66 189 0.0 2.0 0.00 0.00 0.00 80 1019.0
20260510051904 65 233 0.0 2.0 0.00 0.00 0.00 81 1019.0
20260510051404 65 233 0.0 2.0 0.00 0.00 0.00 81 1019.0
20260510050905 65 238 0.0 2.0 0.00 0.00 0.00 81 1019.0
20260510050403 65 234 0.0 1.0 0.00 0.00 0.00 81 1019.0
20260510045903 65 293 0.0 1.0 0.00 0.00 0.00 79 1019.0
20260510045404 66 329 0.0 1.0 0.00 0.00 0.00 79 1019.0
20260510044905 65 329 0.0 1.0 0.00 0.00 0.00 81 1018.9
20260510044404 65 295 0.0 1.0 0.00 0.00 0.00 82 1019.0
20260510043904 64 271 0.0 1.0 0.00 0.00 0.00 82 1019.1
20260510043403 64 274 0.0 1.0 0.00 0.00 0.00 82 1019.1
20260510042905 63 273 0.0 1.0 0.00 0.00 0.00 84 1019.0
20260510041904 63 270 0.0 0.0 0.00 0.00 0.00 84 1019.1
20260510041404 62 270 0.0 0.0 0.00 0.00 0.00 85 1019.1
20260510040404 61 270 0.0 1.0 0.00 0.00 0.00 84 1019.0
20260510035904 61 270 0.0 1.0 0.00 0.00 0.00 83 1018.9
20260510035404 60 291 0.0 1.0 0.00 0.00 0.00 82 1018.9
20260510034904 60 27 0.0 1.0 0.00 0.00 0.00 82 1018.7
20260510033904 60 27 0.0 1.0 0.00 0.00 0.00 82 1018.7
20260510033404 60 27 0.0 2.0 0.00 0.00 0.00 82 1018.6
20260510032404 60 351 0.0 2.0 0.00 0.00 0.00 83 1018.4
20260510031905 59 349 0.0 1.0 0.00 0.00 0.00 83 1018.6
20260510031405 59 348 0.0 1.0 0.00 0.00 0.00 83 1018.5
20260510030903 60 340 0.0 1.0 0.00 0.00 0.00 83 1018.5
20260510030403 60 30 0.0 2.0 0.00 0.00 0.00 83 1018.5
20260510025905 59 14 0.0 2.0 0.00 0.00 0.00 84 1018.5
20260510024903 59 5 0.0 2.0 0.00 0.00 0.00 85 1018.3
20260510024403 58 358 1.0 2.0 0.00 0.00 0.00 86 1018.3
20260510023903 58 8 1.0 2.0 0.00 0.00 0.00 87 1018.3
20260510023405 58 21 0.0 1.0 0.00 0.00 0.00 87 1018.4
20260510022904 58 21 0.0 1.0 0.00 0.00 0.00 87 1018.4
20260510022404 59 21 0.0 1.0 0.00 0.00 0.00 87 1018.3
20260510021904 59 251 0.0 1.0 0.00 0.00 0.00 86 1018.4
20260510021404 60 251 0.0 0.0 0.00 0.00 0.00 85 1018.3
20260510020904 60 251 0.0 1.0 0.00 0.00 0.00 85 1018.4
20260510015905 61 333 0.0 2.0 0.00 0.00 0.00 81 1018.6
20260510015404 61 11 1.0 2.0 0.00 0.00 0.00 81 1018.5
20260510014904 60 4 1.0 2.0 0.00 0.00 0.00 82 1018.4
20260510014404 60 13 1.0 2.0 0.00 0.00 0.00 83 1018.3
20260510013904 60 345 0.0 3.0 0.00 0.00 0.00 82 1018.3
20260510013406 60 7 0.0 3.0 0.00 0.00 0.00 82 1018.3
20260510012404 60 13 0.0 2.0 0.00 0.00 0.00 83 1018.4
20260510011904 59 354 1.0 2.0 0.00 0.00 0.00 84 1018.4
20260510011404 60 9 0.0 2.0 0.00 0.00 0.00 84 1018.5
20260510010904 60 2 0.0 2.0 0.00 0.00 0.00 84 1018.5
20260510010404 60 337 0.0 2.0 0.00 0.00 0.00 84 1018.6
20260510005904 60 0 1.0 2.0 0.00 0.00 0.00 84 1018.5
20260510005405 60 5 0.0 1.0 0.00 0.00 0.00 84 1018.7
20260510004904 60 8 1.0 2.0 0.00 0.00 0.00 84 1018.6
20260510004404 60 8 1.0 2.0 0.00 0.00 0.00 84 1018.7
20260510003904 60 3 1.0 2.0 0.00 0.00 0.00 85 1018.7
20260510003404 60 9 1.0 2.0 0.00 0.00 0.00 85 1018.7
20260510002904 59 10 1.0 2.0 0.00 0.00 0.00 86 1018.6
20260510002403 59 16 1.0 2.0 0.00 0.00 0.00 87 1018.7
20260510001904 59 10 1.0 2.0 0.00 0.00 0.00 88 1018.7
20260510001404 59 0 1.0 2.0 0.00 0.00 0.00 89 1018.6
20260510000906 59 351 0.0 1.0 0.00 0.00 0.00 89 1018.6
20260510000404 58 7 0.0 1.0 0.00 0.00 0.00 90 1018.6
20260509235907 58 2 0.0 1.0 0.00 0.00 0.00 90 1018.6
20260509235404 58 45 0.0 1.0 0.00 0.00 0.00 91 1018.6
20260509234905 58 79 0.0 1.0 0.00 0.00 0.00 91 1018.7
20260509234404 58 82 0.0 1.0 0.00 0.00 0.00 91 1018.8
20260509232903 59 82 0.0 1.0 0.00 0.00 0.00 92 1018.8
20260509232403 59 82 0.0 1.0 0.00 0.00 0.00 92 1018.8
20260509231905 59 82 0.0 1.0 0.00 0.00 0.00 92 1018.9
20260509231403 59 82 0.0 1.0 0.00 0.00 0.00 92 1019.0
20260509230904 59 83 0.0 0.0 0.00 0.00 0.00 92 1019.1
20260509230403 60 83 0.0 0.0 0.00 0.00 0.00 92 1019.1
20260509225904 59 83 0.0 0.0 0.00 0.00 0.00 92 1019.1
20260509225405 60 83 0.0 0.0 0.00 0.00 0.00 92 1019.0
20260509224403 60 83 0.0 0.0 0.00 0.00 0.00 92 1019.1
20260509223904 60 83 0.0 0.0 0.00 0.00 0.00 92 1019.1
20260509222904 60 82 0.0 1.0 0.00 0.00 0.00 92 1019.2
20260509222404 60 82 0.0 1.0 0.00 0.00 0.00 92 1019.1
20260509221904 60 82 0.0 1.0 0.00 0.00 0.00 92 1019.1
20260509221406 61 82 0.0 1.0 0.00 0.00 0.00 92 1019.1
20260509220907 61 86 0.0 1.0 0.00 0.00 0.00 92 1019.1
20260509220404 61 86 0.0 0.0 0.00 0.00 0.00 92 1019.2
20260509215904 61 86 0.0 1.0 0.00 0.00 0.00 92 1019.2
20260509214404 61 89 0.0 0.0 0.00 0.00 0.00 93 1019.3
20260509213905 61 89 0.0 1.0 0.00 0.00 0.00 93 1019.3
20260509213404 61 89 0.0 1.0 0.00 0.00 0.00 93 1019.3
20260509212905 61 89 0.0 1.0 0.00 0.00 0.00 93 1019.3
20260509212404 61 89 0.0 1.0 0.00 0.00 0.00 93 1019.3
20260509211903 61 89 0.0 1.0 0.00 0.00 0.00 92 1019.3
20260509211403 61 89 0.0 0.0 0.00 0.00 0.00 92 1019.3
20260509210904 61 89 0.0 0.0 0.00 0.00 0.00 92 1019.4
20260509210404 61 89 0.0 1.0 0.00 0.00 0.00 92 1019.3
20260509205904 61 89 0.0 1.0 0.00 0.00 0.00 92 1019.3
20260509205404 61 89 0.0 1.0 0.00 0.00 0.00 92 1019.1
20260509204405 61 135 0.0 1.0 0.00 0.00 0.00 92 1019.0
20260509203905 61 135 0.0 1.0 0.00 0.00 0.00 92 1019.1
20260509202904 61 135 0.0 0.0 0.00 0.00 0.00 91 1019.0
20260509202405 61 135 0.0 1.0 0.00 0.00 0.00 91 1018.9
20260509201903 60 135 0.0 1.0 0.00 0.00 0.00 91 1018.8
20260509200905 61 187 0.0 0.0 0.00 0.00 0.00 90 1018.8
20260509195904 61 219 0.0 0.0 0.00 0.00 0.00 90 1018.8
20260509195404 62 219 0.0 0.0 0.00 0.00 0.00 91 1018.8
20260509194904 62 219 0.0 0.0 0.00 0.00 0.00 90 1018.8
20260509194405 62 219 0.0 0.0 0.00 0.00 0.00 90 1018.8
20260509193904 62 219 0.0 0.0 0.00 0.00 0.00 90 1018.8
20260509193403 62 219 0.0 0.0 0.00 0.00 0.00 90 1018.7
20260509192903 62 219 0.0 0.0 0.00 0.00 0.00 90 1018.7
20260509192405 62 219 0.0 0.0 0.00 0.00 0.00 90 1018.8
20260509191904 62 219 0.0 0.0 0.00 0.00 0.00 90 1018.7
20260509191404 62 219 0.0 0.0 0.00 0.00 0.00 89 1018.7
20260509190903 62 219 0.0 0.0 0.00 0.00 0.00 90 1018.8
20260509190404 62 219 0.0 0.0 0.00 0.00 0.00 89 1018.8
20260509185405 62 219 0.0 0.0 0.00 0.00 0.00 89 1018.7
20260509184905 62 219 0.0 0.0 0.00 0.00 0.00 88 1018.7
20260509184405 63 219 0.0 0.0 0.00 0.00 0.00 89 1018.7
20260509183903 63 219 0.0 0.0 0.00 0.00 0.00 88 1018.6
20260509183403 63 219 0.0 0.0 0.00 0.00 0.00 88 1018.6
20260509182403 63 219 0.0 0.0 0.00 0.00 0.00 87 1018.5
20260509181404 64 219 0.0 0.0 0.00 0.00 0.00 87 1018.3
20260509180904 64 219 0.0 0.0 0.00 0.00 0.00 86 1018.2
20260509180404 64 219 0.0 0.0 0.00 0.00 0.00 86 1018.0
20260509175904 64 219 0.0 1.0 0.00 0.00 0.00 86 1017.9
20260509175405 65 219 0.0 1.0 0.00 0.00 0.00 86 1017.9
20260509174905 65 219 0.0 0.0 0.00 0.00 0.00 85 1017.8
20260509174404 65 219 0.0 0.0 0.00 0.00 0.00 85 1017.7
20260509173903 66 218 0.0 0.0 0.00 0.00 0.00 85 1017.6
20260509172905 66 219 0.0 0.0 0.00 0.00 0.00 84 1017.3
20260509172406 67 218 0.0 0.0 0.00 0.00 0.00 84 1017.4
20260509171905 67 218 0.0 0.0 0.00 0.00 0.00 84 1017.4
20260509171404 67 218 0.0 0.0 0.00 0.00 0.00 84 1017.4
20260509170905 67 218 0.0 0.0 0.00 0.00 0.00 84 1017.5
20260509170404 67 219 0.0 0.0 0.00 0.00 0.00 84 1017.5
20260509165905 67 218 0.0 1.0 0.00 0.00 0.00 85 1017.6
20260509165404 66 218 0.0 1.0 0.00 0.00 0.00 84 1017.6
20260509164904 67 218 0.0 1.0 0.00 0.00 0.00 83 1017.5
20260509164404 67 218 0.0 1.0 0.00 0.00 0.00 83 1017.5
20260509163403 67 219 0.0 0.0 0.00 0.00 0.00 84 1017.6
20260509162905 67 219 0.0 0.0 0.00 0.00 0.00 84 1017.5
20260509162404 67 219 0.0 0.0 0.00 0.00 0.00 84 1017.4
20260509161904 67 219 0.0 0.0 0.00 0.00 0.00 84 1017.4
20260509161411 67 219 0.0 1.0 0.00 0.00 0.00 84 1017.5
20260509160404 67 220 0.0 1.0 0.00 0.00 0.00 84 1017.6
20260509155904 67 231 0.0 1.0 0.00 0.00 0.00 84 1017.6
20260509155404 67 185 0.0 1.0 0.00 0.00 0.00 84 1017.5
20260509154904 67 206 0.0 1.0 0.00 0.00 0.00 84 1017.5
20260509154404 67 199 0.0 3.0 0.00 0.00 0.00 83 1017.5
20260509153904 67 200 2.0 3.0 0.00 0.00 0.00 83 1017.5
20260509153403 67 205 1.0 3.0 0.00 0.00 0.00 83 1017.5
20260509152904 67 206 1.0 3.0 0.00 0.00 0.00 83 1017.4
20260509152404 68 206 2.0 3.0 0.00 0.00 0.00 82 1017.4
20260509151904 68 214 2.0 3.0 0.00 0.00 0.00 82 1017.4
20260509151404 69 207 2.0 3.0 0.00 0.00 0.00 81 1017.4
20260509150403 69 219 1.0 2.0 0.00 0.00 0.00 80 1017.3
20260509145904 69 192 0.0 3.0 0.00 0.00 0.00 81 1017.2
20260509145404 69 160 2.0 6.0 0.00 0.00 0.00 81 1017.3
20260509144904 69 215 2.0 6.0 0.00 0.00 0.00 81 1017.2
20260509144404 69 213 2.0 6.0 0.00 0.00 0.00 80 1017.3
20260509143904 70 201 1.0 3.0 0.00 0.00 0.00 80 1017.2
20260509143404 69 155 1.0 3.0 0.00 0.00 0.00 81 1017.2
20260509142903 69 214 1.0 3.0 0.00 0.00 0.00 81 1017.2
20260509142404 69 206 0.0 3.0 0.00 0.00 0.00 81 1017.2
20260509141904 69 243 1.0 3.0 0.00 0.00 0.00 80 1017.2
20260509141403 69 228 2.0 3.0 0.00 0.00 0.00 79 1017.3
20260509140903 69 220 1.0 3.0 0.00 0.00 0.00 79 1017.3
20260509140404 69 214 1.0 3.0 0.00 0.00 0.00 78 1017.2
20260509135904 69 218 1.0 5.0 0.00 0.00 0.00 77 1017.2
20260509135403 69 210 2.0 5.0 0.00 0.00 0.00 77 1017.3
20260509134904 69 242 1.0 3.0 0.00 0.00 0.00 76 1017.2
20260509134405 69 151 0.0 3.0 0.00 0.00 0.00 76 1017.2
20260509133906 70 211 2.0 3.0 0.00 0.00 0.00 75 1017.3
20260509133404 70 211 1.0 5.0 0.00 0.00 0.00 75 1017.3
20260509132404 70 219 2.0 5.0 0.00 0.00 0.00 73 1017.4
20260509130905 71 218 1.0 3.0 0.00 0.00 0.00 73 1017.2
20260509130404 71 253 2.0 3.0 0.00 0.00 0.00 72 1017.3
20260509125904 71 225 1.0 3.0 0.00 0.00 0.00 71 1017.2
20260509125405 72 223 2.0 5.0 0.00 0.00 0.00 71 1017.3
20260509124406 72 224 2.0 7.0 0.00 0.00 0.00 70 1017.2
20260509123403 75 228 1.0 6.0 0.00 0.00 0.00 69 1017.4
20260509122903 75 217 2.0 6.0 0.00 0.00 0.00 69 1017.3
20260509122405 75 234 2.0 6.0 0.00 0.00 0.00 69 1017.4
20260509121903 74 222 2.0 6.0 0.00 0.00 0.00 70 1017.3
20260509121403 74 216 3.0 6.0 0.00 0.00 0.00 68 1017.3
20260509120904 74 227 2.0 3.0 0.00 0.00 0.00 68 1017.3
20260509115905 74 249 2.0 3.0 0.00 0.00 0.00 69 1017.3
20260509115404 73 285 1.0 3.0 0.00 0.00 0.00 68 1017.3
20260509114904 74 244 1.0 3.0 0.00 0.00 0.00 68 1017.4
20260509114404 73 347 1.0 6.0 0.00 0.00 0.00 70 1017.5
20260509113905 72 276 2.0 6.0 0.00 0.00 0.00 72 1017.5
20260509112904 71 257 0.0 3.0 0.00 0.00 0.00 73 1017.5
20260509112404 70 247 1.0 3.0 0.00 0.00 0.00 73 1017.5
20260509111404 70 270 1.0 5.0 0.00 0.00 0.00 72 1017.5
20260509110904 70 238 1.0 5.0 0.00 0.00 0.00 72 1017.6
20260509110404 70 230 2.0 5.0 0.00 0.00 0.00 70 1017.7
20260509105904 70 237 2.0 3.0 0.00 0.00 0.00 70 1017.7
20260509104906 71 242 1.0 3.0 0.00 0.00 0.00 70 1017.7
20260509104404 70 208 1.0 3.0 0.00 0.00 0.00 70 1017.7
20260509103905 70 266 1.0 5.0 0.00 0.00 0.00 69 1017.8
20260509103404 70 322 1.0 5.0 0.00 0.00 0.00 67 1017.9
20260509102403 71 214 1.0 3.0 0.00 0.00 0.00 69 1017.9
20260509101403 70 217 1.0 5.0 0.00 0.00 0.00 70 1017.9
20260509100904 70 236 3.0 5.0 0.00 0.00 0.00 68 1018.0
20260509095904 71 215 0.0 3.0 0.00 0.00 0.00 71 1018.1
20260509095404 70 204 1.0 5.0 0.00 0.00 0.00 70 1018.1
20260509094906 70 272 2.0 5.0 0.00 0.00 0.00 70 1018.2
20260509094406 70 236 2.0 5.0 0.00 0.00 0.00 69 1018.2
20260509093904 70 223 1.0 5.0 0.00 0.00 0.00 70 1018.2
20260509093403 70 236 2.0 5.0 0.00 0.00 0.00 72 1018.2
20260509092903 70 244 1.0 6.0 0.00 0.00 0.00 72 1018.2
20260509091905 69 232 2.0 6.0 0.00 0.00 0.00 73 1018.3
20260509091404 69 227 1.0 5.0 0.00 0.00 0.00 74 1018.4
20260509090905 69 229 1.0 5.0 0.00 0.00 0.00 74 1018.4
20260509090404 70 261 1.0 5.0 0.00 0.00 0.00 73 1018.3
20260509085904 70 270 2.0 5.0 0.00 0.00 0.00 75 1018.3
20260509085404 70 232 1.0 5.0 0.00 0.00 0.00 74 1018.4
20260509084904 70 231 1.0 5.0 0.00 0.00 0.00 74 1018.5
20260509084406 70 30 0.0 3.0 0.00 0.00 0.00 72 1018.4
20260509083904 70 223 2.0 3.0 0.00 0.00 0.00 74 1018.5
20260509083404 70 240 1.0 3.0 0.00 0.00 0.00 76 1018.5
20260509082906 69 187 1.0 3.0 0.00 0.00 0.00 74 1018.6
20260509082404 70 103 0.0 2.0 0.00 0.00 0.00 74 1018.5
20260509081903 70 248 1.0 2.0 0.00 0.00 0.00 74 1018.6
20260509081405 69 322 0.0 3.0 0.00 0.00 0.00 76 1018.6
20260509080903 68 202 1.0 3.0 0.00 0.00 0.00 79 1018.6
20260509080403 67 219 1.0 3.0 0.00 0.00 0.00 79 1018.7
20260509075904 66 259 1.0 3.0 0.00 0.00 0.00 79 1018.7
20260509074404 65 283 0.0 2.0 0.00 0.00 0.00 82 1018.7
20260509073904 65 356 0.0 2.0 0.00 0.00 0.00 83 1018.7
20260509073404 64 46 1.0 2.0 0.00 0.00 0.00 84 1018.7
20260509072906 64 7 1.0 2.0 0.00 0.00 0.00 86 1018.6
20260509072404 64 324 0.0 2.0 0.00 0.00 0.00 85 1018.7
20260509071904 63 251 0.0 1.0 0.00 0.00 0.00 86 1018.8
20260509071406 63 245 0.0 1.0 0.00 0.00 0.00 86 1018.9
20260509070904 63 245 0.0 1.0 0.00 0.00 0.00 86 1018.9
20260509070405 62 212 0.0 2.0 0.00 0.00 0.00 87 1018.9
20260509065904 62 198 1.0 2.0 0.00 0.00 0.00 88 1018.9
20260509064904 62 177 0.0 1.0 0.00 0.00 0.00 89 1018.9
20260509064403 59 173 0.0 0.0 0.00 0.00 0.00 89 1018.9
20260509063405 57 0 0.0 0.0 0.00 0.00 0.00 88 1018.8
20260509062903 57 0 0.0 0.0 0.00 0.00 0.00 88 1018.9
20260509062404 57 0 0.0 0.0 0.00 0.00 0.00 88 1018.8
20260509061904 57 0 0.0 0.0 0.00 0.00 0.00 88 1018.8